Regional Weather Roundup
Issued by NWS

Home | Current Version | Previous Version | Graphics & Text | Print | Product List | Glossary On
Versions: 1 2 3 4 5 6 7 8 9 10 11 12 13 14 15 16 17 18 19 20 21 22 23 24 25 26 27 28 29 30 31 32 33 34 35 36 37 38 39 40 41 42 43 44 45 46 47 48 49 50
718
ASUS43 KLOT 030903
RWRIL

ILLINOIS REGIONAL WEATHER ROUNDUP
NATIONAL WEATHER SERVICE CHICAGO/ROMEOVILLE IL
400 AM CDT TUE MAY 03 2016

NOTE: "FAIR" INDICATES FEW OR NO CLOUDS BELOW 12,000 FEET WITH NO
SIGNIFICANT WEATHER AND/OR OBSTRUCTIONS TO VISIBILITY.

* THESE STATIONS ARE NOT UNDER NWS QUALITY CONTROL. THEY ALSO MAY NOT
  REPORT WEATHER SUCH AS PRECIPITATION OR FOG.

ILZ001-002-007-009-015-016-024-031000-
NORTHWEST ILLINOIS

CITY           SKY/WX    TMP DP  RH WIND       PRES   REMARKS
MOLINE         PTCLDY    40  38  93 CALM      30.01R
STERLING*      PTCLDY    43  41  93 CALM      30.00S
$$

ILZ003-004-008-010-011-017-018-031000-
NORTH CENTRAL ILLINOIS

CITY           SKY/WX    TMP DP  RH WIND       PRES   REMARKS
ROCKFORD       MOCLDY    40  37  89 CALM      30.01S
FREEPORT*      PTCLDY    37  35  92 SW3       30.01R
DE KALB*       CLEAR     43  33  68 W5        29.99S
$$

ILZ005-006-012>014-019>023-031000-
NORTHEAST ILLINOIS

CITY           SKY/WX    TMP DP  RH WIND       PRES   REMARKS
CHICAGO-OHARE  CLEAR     42  35  76 NW3       29.97S
CHICAGO-MIDWAY CLEAR     42  34  73 W3        29.97F
AURORA         CLEAR     37  34  89 NW5       29.99S WCI  33
LANSING*       CLEAR     38  37  95 CALM      29.98S
WAUKEGAN       CLEAR     39  35  86 W3        29.97S
DUPAGE AIRPORT CLEAR     40  33  76 CALM      29.98S
WHEELING       PTCLDY    39  36  89 CALM      29.98F
NORTHERLY ISL    N/A     47  34  60 W3          N/A
NORTHERLY ISL    N/A     47  34  60 W3          N/A
$$

LMZ740>746-031000-
SOUTHERN LAKE MICHIGAN

STATION/POSITION SKY/WX   TEMP    WIND        PRES    VSBY  WAVE
                          AIR SEA DIR/SP/G                  HT/PER
                          (F)     (DEG/KT/KT) (MB)    (MI)  (FT/S)
SOUTHERN BUOY              41 41  260/  4/  4 1015.0          1
HARRISON CRIB              48     290/  3/  4   N/A
BURNHAM HARBOR             47     300/  3/  7   N/A
CALUMET HARBOR             44     250/  2/  3 1014.5F
BURNS HARBOR               46     330/  5/  7 1015.6F
MICHIGAN CITY              44     260/  4/  5   N/A
ST. JOSEPH                 44 48                N/A           1/ 4
$$

ILZ025>027-034>036-040-047-049-050-058-095>099-031000-
WEST-CENTRAL ILLINOIS

CITY           SKY/WX    TMP DP  RH WIND       PRES   REMARKS
QUINCY         CLOUDY    48  46  93 NW6       30.02S
MACOMB*        CLOUDY    48  46  93 NE3       30.04R
$$

ILZ028>032-037-038-041>044-048-051>054-059>061-031000-
CENTRAL ILLINOIS

CITY           SKY/WX    TMP DP  RH WIND       PRES   REMARKS
BLOOMINGTON    CLEAR     42  41  97 NW3       30.00S
DECATUR        PTCLDY    47  43  86 NW3       29.99S
PEORIA         CLEAR     42  40  92 CALM      30.01S
SPRINGFIELD    CLOUDY    50  47  89 N5        30.00S
TAYLORVILLE    NOT AVBL
$$

ILZ033-039-045-046-055>057-062-063-031000-
EAST-CENTRAL ILLINOIS

CITY           SKY/WX    TMP DP  RH WIND       PRES   REMARKS
CHAMPAIGN      MOCLDY    43  41  93 NW5       29.97S
MATTOON        CLEAR     44  42  93 NW6       29.96S FOG
$$

ILZ079-100>102-031000-
SOUTHWEST ILLINOIS

CITY           SKY/WX    TMP DP  RH WIND       PRES   REMARKS
ALTON          CLOUDY    49  49  97 CALM      30.01S
CAHOKIA*       CLOUDY    53  48  83 NW7       30.01S
SPARTA*        CLOUDY    51  50  95 CALM      30.01S
$$

ILZ064>066-069>071-074>076-080>082-084>086-088>090-092>094-031000-
SOUTH-CENTRAL ILLINOIS

CITY           SKY/WX    TMP DP  RH WIND       PRES   REMARKS
CARBONDALE     CLEAR     49  46  90 W3        29.99S
MT. VERNON     CLOUDY    54  46  76 CALM      29.99S
CENTRALIA*     CLOUDY    53  51  93 NW6       29.98S
SALEM*         CLOUDY    54  50  87 NW6       29.98S
$$

ILZ067-068-072-073-078-083-087-091-031000-
SOUTHEAST ILLINOIS

CITY           SKY/WX    TMP DP  RH WIND       PRES   REMARKS
LAWRENCEVILLE  CLEAR     50  49  96 NW7       29.96S
FLORA*         CLOUDY    53  50  89 NW7       29.97S
HARRISBURG*    MOCLDY    52  49  92 NW5       29.98S
ROBINSON*      PTCLDY    46  46 100 W5        29.96S
$$

ABBREVIATIONS USED IN REMARKS
   TC - TEMPERATURE IN CELSIUS
  WCI - WIND CHILL INDEX
   HX - HEAT INDEX
  VSB - VISIBILITY
$$





USA.gov is the U.S. government's official web portal to all federal, state and local government web resources and services.